When you browse on this site, cookies collect data to enhance your experience and personalize the content and advertising you see.
Visit our Privacy Policy to learn more. By continuing to use the site, you agree to this use of cookies and data.
  • In United Kingdom
  • List of Countries
  • For 7 days
  • Water Temperature
  • Satellite Maps
  • Weather Map
  • Weather Widgets
  • user-avatar
    Login

    Hourly Weather San Pédro

    Today, 22 February, Friday

    Time Temperature Precipitation Wind Pressure Humidity
    00:00 +27°C° 0 mm 3 mps 751 mmHg 87%
    01:00 +27°C° 0 mm 3 mps 751 mmHg 88%
    02:00 +27°C° 0 mm 3 mps 750 mmHg 89%
    03:00 +26°C° 0 mm 3 mps 750 mmHg 89%
    04:00 +26°C° 0 mm 3 mps 750 mmHg 90%
    05:00 +26°C° 0 mm 3 mps 750 mmHg 91%
    06:00 +26°C° 0 mm 3 mps 750 mmHg 92%
    07:00 +27°C° 0 mm 3 mps 750 mmHg 86%
    08:00 +29°C° 0 mm 2 mps 750 mmHg 80%
    09:00 +30°C° 0 mm 2 mps 751 mmHg 74%
    10:00 +32°C° 0 mm 2 mps 751 mmHg 68%
    11:00 +34°C° 0 mm 3 mps 751 mmHg 61%
    12:00 +36°C° 0 mm 3 mps 750 mmHg 54%
    13:00 +35°C° 0.1 mm 3 mps 750 mmHg 57%
    14:00 +35°C° 0.1 mm 4 mps 749 mmHg 59%
    15:00 +34°C° 0.1 mm 4 mps 748 mmHg 62%
    16:00 +33°C° 0.2 mm 4 mps 748 mmHg 68%
    17:00 +32°C° 0.2 mm 4 mps 748 mmHg 74%
    18:00 +29°C° 0.2 mm 4 mps 748 mmHg 80%
    19:00 +29°C° 0 mm 4 mps 749 mmHg 82%
    20:00 +28°C° 0 mm 4 mps 749 mmHg 84%
    21:00 +28°C° 0 mm 4 mps 750 mmHg 86%
    22:00 +28°C° 0 mm 4 mps 750 mmHg 87%
    23:00 +28°C° 0 mm 4 mps 750 mmHg 87%

    Tomorrow, 23 February, Saturday

    Time Temperature Precipitation Wind Pressure Humidity
    00:00 +27°C° 0 mm 4 mps 750 mmHg 88%
    01:00 +27°C° 0 mm 4 mps 750 mmHg 89%
    02:00 +27°C° 0 mm 3 mps 749 mmHg 91%
    03:00 +27°C° 0 mm 3 mps 749 mmHg 92%
    04:00 +27°C° 0 mm 3 mps 749 mmHg 93%
    05:00 +26°C° 0 mm 3 mps 749 mmHg 93%
    06:00 +26°C° 0 mm 3 mps 749 mmHg 94%
    07:00 +27°C° 0.1 mm 3 mps 749 mmHg 91%
    08:00 +27°C° 0.1 mm 3 mps 750 mmHg 88%
    09:00 +28°C° 0.1 mm 3 mps 751 mmHg 86%
    10:00 +29°C° 0.4 mm 2 mps 750 mmHg 82%
    11:00 +30°C° 0.4 mm 2 mps 750 mmHg 79%
    12:00 +30°C° 0.4 mm 2 mps 750 mmHg 76%
    13:00 +31°C° 0.2 mm 2 mps 749 mmHg 70%
    14:00 +34°C° 0.2 mm 3 mps 748 mmHg 64%
    15:00 +35°C° 0.2 mm 4 mps 748 mmHg 58%
    16:00 +33°C° 0.1 mm 4 mps 747 mmHg 66%
    17:00 +32°C° 0.1 mm 4 mps 747 mmHg 73%
    18:00 +29°C° 0.1 mm 4 mps 747 mmHg 80%
    19:00 +29°C° 0 mm 4 mps 748 mmHg 82%
    20:00 +28°C° 0 mm 4 mps 748 mmHg 85%
    21:00 +28°C° 0 mm 4 mps 749 mmHg 87%
    22:00 +28°C° 0 mm 4 mps 749 mmHg 87%
    23:00 +27°C° 0 mm 4 mps 749 mmHg 88%

    Day after tomorrow, 24 February, Sunday

    Time Temperature Precipitation Wind Pressure Humidity
    00:00 +27°C° 0 mm 4 mps 749 mmHg 89%
    01:00 +27°C° 0 mm 4 mps 748 mmHg 90%
    02:00 +27°C° 0 mm 4 mps 748 mmHg 91%
    03:00 +27°C° 0 mm 4 mps 747 mmHg 92%
    04:00 +27°C° 0 mm 3 mps 747 mmHg 92%
    05:00 +26°C° 0 mm 3 mps 747 mmHg 93%
    06:00 +26°C° 0 mm 3 mps 747 mmHg 93%
    07:00 +27°C° 0.1 mm 3 mps 748 mmHg 89%
    08:00 +28°C° 0.1 mm 3 mps 749 mmHg 84%
    09:00 +29°C° 0.1 mm 3 mps 750 mmHg 80%
    10:00 +30°C° 0.7 mm 3 mps 750 mmHg 75%
    11:00 +33°C° 0.7 mm 3 mps 749 mmHg 69%
    12:00 +34°C° 0.7 mm 3 mps 749 mmHg 64%
    13:00 +33°C° 0.3 mm 3 mps 748 mmHg 66%
    14:00 +33°C° 0.3 mm 3 mps 748 mmHg 68%
    15:00 +33°C° 0.3 mm 4 mps 747 mmHg 70%
    16:00 +32°C° 0.2 mm 4 mps 747 mmHg 72%
    17:00 +32°C° 0.2 mm 4 mps 747 mmHg 74%
    18:00 +30°C° 0.2 mm 3 mps 747 mmHg 76%
    19:00 +29°C° 0 mm 3 mps 747 mmHg 79%
    20:00 +28°C° 0 mm 3 mps 748 mmHg 83%
    21:00 +28°C° 0 mm 3 mps 749 mmHg 87%
    22:00 +27°C° 0 mm 3 mps 749 mmHg 87%
    23:00 +27°C° 0 mm 3 mps 749 mmHg 88%

    25 February, Monday

    Time Temperature Precipitation Wind Pressure Humidity
    00:00 +27°C° 0 mm 3 mps 749 mmHg 89%
    01:00 +26°C° 0 mm 3 mps 748 mmHg 90%
    02:00 +26°C° 0 mm 3 mps 747 mmHg 91%
    03:00 +26°C° 0 mm 3 mps 747 mmHg 92%
    04:00 +26°C° 0 mm 3 mps 747 mmHg 92%
    05:00 +25°C° 0 mm 3 mps 747 mmHg 93%
    06:00 +25°C° 0 mm 3 mps 747 mmHg 94%
    07:00 +27°C° 0 mm 3 mps 748 mmHg 88%
    08:00 +28°C° 0 mm 3 mps 748 mmHg 81%
    09:00 +29°C° 0 mm 3 mps 749 mmHg 74%
    10:00 +31°C° 0 mm 3 mps 749 mmHg 67%
    11:00 +34°C° 0 mm 3 mps 749 mmHg 59%
    12:00 +36°C° 0 mm 3 mps 749 mmHg 51%
    13:00 +35°C° 0.2 mm 3 mps 748 mmHg 57%
    14:00 +34°C° 0.2 mm 4 mps 747 mmHg 63%
    15:00 +33°C° 0.2 mm 4 mps 746 mmHg 68%
    16:00 +33°C° 0 mm 4 mps 746 mmHg 69%
    17:00 +32°C° 0 mm 4 mps 746 mmHg 71%
    18:00 +32°C° 0 mm 4 mps 747 mmHg 72%
    19:00 +30°C° 0 mm 4 mps 747 mmHg 75%
    20:00 +29°C° 0 mm 4 mps 748 mmHg 79%
    21:00 +28°C° 0 mm 4 mps 749 mmHg 82%
    22:00 +28°C° 0 mm 4 mps 749 mmHg 83%
    23:00 +28°C° 0 mm 4 mps 749 mmHg 83%

    26 February, Tuesday

    Time Temperature Precipitation Wind Pressure Humidity
    00:00 +27°C° 0 mm 4 mps 749 mmHg 84%
    01:00 +27°C° 0 mm 4 mps 748 mmHg 85%
    02:00 +27°C° 0 mm 4 mps 748 mmHg 86%
    03:00 +26°C° 0 mm 3 mps 747 mmHg 86%
    04:00 +26°C° 0 mm 3 mps 747 mmHg 87%
    05:00 +26°C° 0 mm 3 mps 747 mmHg 88%
    06:00 +26°C° 0 mm 3 mps 747 mmHg 88%
    07:00 +27°C° 0 mm 3 mps 748 mmHg 83%
    08:00 +29°C° 0 mm 3 mps 748 mmHg 78%
    09:00 +30°C° 0 mm 3 mps 749 mmHg 73%
    10:00 +31°C° 0 mm 3 mps 749 mmHg 68%
    11:00 +34°C° 0 mm 3 mps 748 mmHg 62%
    12:00 +35°C° 0 mm 3 mps 748 mmHg 56%
    13:00 +34°C° 0.4 mm 4 mps 747 mmHg 61%
    14:00 +34°C° 0.4 mm 4 mps 747 mmHg 66%
    15:00 +33°C° 0.4 mm 4 mps 746 mmHg 71%
    16:00 +32°C° 0.4 mm 4 mps 746 mmHg 77%
    17:00 +30°C° 0.4 mm 4 mps 747 mmHg 83%
    18:00 +28°C° 0.4 mm 4 mps 747 mmHg 88%
    19:00 +28°C° 0 mm 4 mps 748 mmHg 89%
    20:00 +27°C° 0 mm 4 mps 748 mmHg 91%
    21:00 +27°C° 0 mm 4 mps 749 mmHg 92%
    22:00 +27°C° 0 mm 4 mps 749 mmHg 92%
    23:00 +27°C° 0 mm 4 mps 749 mmHg 92%

    27 February, Wednesday

    Time Temperature Precipitation Wind Pressure Humidity
    00:00 +26°C° 0 mm 3 mps 749 mmHg 92%
    01:00 +26°C° 0 mm 3 mps 748 mmHg 93%
    02:00 +26°C° 0 mm 3 mps 748 mmHg 94%
    03:00 +26°C° 0 mm 3 mps 747 mmHg 94%
    04:00 +26°C° 0 mm 3 mps 748 mmHg 94%
    05:00 +26°C° 0 mm 3 mps 748 mmHg 95%
    06:00 +26°C° 0 mm 3 mps 748 mmHg 95%
    07:00 +27°C° 0 mm 3 mps 748 mmHg 89%
    08:00 +28°C° 0 mm 3 mps 749 mmHg 84%
    09:00 +29°C° 0 mm 3 mps 749 mmHg 78%
    10:00 +31°C° 0 mm 3 mps 749 mmHg 70%
    11:00 +34°C° 0 mm 3 mps 749 mmHg 62%
    12:00 +36°C° 0 mm 3 mps 748 mmHg 54%
    13:00 +35°C° 0.2 mm 3 mps 748 mmHg 57%
    14:00 +35°C° 0.2 mm 4 mps 747 mmHg 61%
    15:00 +34°C° 0.2 mm 4 mps 746 mmHg 65%
    16:00 +33°C° 1 mm 4 mps 747 mmHg 72%
    17:00 +30°C° 1 mm 4 mps 747 mmHg 79%
    18:00 +29°C° 1 mm 4 mps 747 mmHg 85%
    19:00 +28°C° 0 mm 4 mps 748 mmHg 87%
    20:00 +28°C° 0 mm 4 mps 748 mmHg 88%
    21:00 +27°C° 0 mm 4 mps 749 mmHg 90%
    22:00 +27°C° 0 mm 4 mps 749 mmHg 90%
    23:00 +27°C° 0 mm 4 mps 749 mmHg 91%
    Show more